Content
SEND FEEDBACK

Daily
Averages
Monthly
Summary
Switzerland

ZERMATT, SWITZERLAND


Home > Europe > Switzerland
Elevation: 5282 feet     Latitude: 46 01N     Longitude: 007 45E

WEATHER
 
SELECT A DAY
Number of Records: 133,092;   Date Range: 7/1/96 - 7/28/14
 
SHARE

PRINT THIS DATA

[ ← Previous Day ]
WEATHER ALMANAC - JANUARY 18, 2013
[ Next Day → ]
[ °C ]   °F
Weather ElementAverageHighLow
Temperature4.5 °F10.4 °F (6:55 pm)-3 °F (1:00 am)
Dewpoint-1.6 °F5 °F (1:55 pm)-9.4 °F (7:55 pm)
Humidity74.8 %92 % (11:55 am)33 % (7:00 pm)
Barometer29.29 in29.33 in (11:55 am)29.24 in (1:55 am)
Wind Speed11.5 mph20.7 mph (1:00 am)
Weather ElementAverage
Visibility14 mi
Wind DirectionESE (100.3 °)

Weather ElementTotal
Precipitation---
Heating Degree Days61.3 (Base 65)
Averaged from 31 records on January 18, 2013
WEATHER CONDITIONS BREAKOUT
WIND DIRECTION BREAKOUT
WEATHER BY HOUR - JANUARY 18, 2013
[ °C ]   °F
Local TimeTemperatureDewpointHumidityBarometerVisibilityWind DirectionWind SpeedGust SpeedPrecipitationEventsConditions
1:00 AM-3.0 °F-6.0 °F79 %7.0 miNE (50°)20.7 mphFogLight Fog
1:55 AM-2.2 °F-5.8 °F85 %29.24 inNE (40°)20.7 mphClear
2:55 AM-2.2 °F-5.8 °F85 %29.24 inENE (60°)16.1 mphClear
3:55 AM-0.4 °F-4.0 °F85 %29.24 inNE (50°)16.1 mphClear
4:00 AM-1.0 °F-4.0 °F78 %7.0 miNE (50°)16.1 mph
4:55 AM-0.4 °F-4.0 °F85 %29.24 inENE (60°)15.0 mphClear
5:55 AM-0.4 °F-4.0 °F85 %29.24 inENE (70°)15.0 mphClear
6:55 AM-0.4 °F-4.0 °F85 %29.24 inNE (50°)13.8 mphClear
7:00 AM-1.0 °F-4.0 °F79 %6.0 miNE (50°)13.8 mph
7:55 AM1.4 °F-2.2 °F85 %29.27 inENE (70°)12.7 mphClear
8:55 AM3.2 °F-0.4 °F85 %29.30 inENE (60°)16.1 mphClear
9:55 AM5.0 °F1.4 °F85 %29.30 inENE (60°)16.1 mphClear
10:00 AM4.0 °F1.0 °F81 %31.0 miENE (60°)16.1 mphClear
10:55 AM5.0 °F1.4 °F85 %29.30 inENE (60°)12.7 mphClear
11:55 AM5.0 °F3.2 °F92 %29.33 inNE (40°)4.6 mphClear
12:55 PM6.8 °F3.2 °F85 %29.33 inENE (60°)4.6 mphClear
1:00 PM7.0 °F4.0 °F81 %31.0 miENE (60°)4.6 mphClear
1:55 PM8.6 °F5.0 °F85 %29.30 inNNE (20°)4.6 mphClear
2:55 PM8.6 °F3.2 °F79 %29.30 inNNE (20°)5.8 mphClear
3:55 PM8.6 °F3.2 °F79 %29.33 inNNE (20°)9.2 mphClear
4:00 PM9.0 °F3.0 °F66 %44.0 miNNE (20°)9.2 mphClear
4:55 PM8.6 °F-0.4 °F67 %29.33 inNE (40°)8.1 mphClear
5:55 PM8.6 °F-2.2 °F62 %29.30 inNNE (20°)6.9 mphClear
6:55 PM10.4 °F-5.8 °F48 %29.30 inNW (320°)4.6 mphClear
7:00 PM10.0 °F-6.0 °F33 %7.0 miNW (320°)4.6 mphClear
7:55 PM6.8 °F-9.4 °F48 %29.30 inNW (320°)3.5 mphClear
8:55 PM5.0 °F-7.6 °F56 %29.30 inSW (220°)5.8 mphClear
9:55 PM6.8 °F-2.2 °F67 %29.30 inSW (220°)11.5 mphClear
10:00 PM7.0 °F-2.0 °F52 %6.0 miSW (220°)11.5 mphClear
10:55 PM6.8 °F-0.4 °F72 %29.30 in0.5 miSSW (200°)16.1 mphFogLight Freezing Fog
11:55 PM6.8 °F1.4 °F79 %29.27 in0.5 miSSW (200°)20.7 mphFogLight Freezing Fog
Hourly data recorded from LIMH, located miles away from Zermatt, Switzerland







STORIES FROM OUR PARTNERS